Date String (YYYY-MM-DD hh:mm:ss) UTC,Instrument flags,Ambient pressure (hPa),Sample flow (lpm),Bypass flow (lpm),Sample temperature (°C),Ambient temperature (°C),ASC tube jacket temperature (°C),LED temperature (°C),Box temperature (°C),Sample RH (%),Span deviation,Mass concentration (μg/m³),Mass concentration (μg/m³),Mass concentration (μg/m³)
DateTimeUTC,F1_M11,P_M11,Q1_M11,Q2_M11,T1_M11,T2_M11,T3_M11,T4_M11,T5_M11,U1_M11,ZSPAN_M11,X0_M11,X2_M11,X1_M11
2022-11-30 19:00:00,,0825.2,5.00,0.00,23.5,22.4,00.0,32.3,25.3,08.0,0000.0,0015.41,0009.90,0009.51
2022-11-30 19:01:00,,0825.2,5.00,0.00,23.5,22.3,00.0,32.3,25.3,07.9,0000.0,0015.49,0010.03,0009.63
2022-11-30 19:02:00,,0825.3,5.00,0.00,23.5,22.3,00.0,32.3,25.3,08.0,0000.0,0015.84,0010.15,0009.75
2022-11-30 19:03:00,,0825.4,5.01,0.00,23.5,22.3,00.0,32.3,25.3,07.9,0000.0,0016.43,0010.27,0009.86
2022-11-30 19:04:00,,0825.3,5.02,0.00,23.5,22.3,00.0,32.3,25.2,07.8,0000.0,0016.74,0010.37,0009.96
2022-11-30 19:05:00,,0825.3,4.99,0.00,23.5,22.3,00.0,32.4,25.3,07.8,0000.0,0016.84,0010.49,0010.06
2022-11-30 19:06:00,,0825.3,5.00,0.00,23.5,22.4,00.0,32.4,25.3,08.1,0000.0,0016.85,0010.54,0010.11
2022-11-30 19:07:00,,0825.2,5.00,0.00,23.6,22.4,00.0,32.4,25.4,07.9,0000.0,0016.36,0010.47,0010.07
2022-11-30 19:08:00,,0825.2,5.01,0.00,23.6,22.4,00.0,32.4,25.4,07.8,0000.0,0016.34,0010.42,0010.02
2022-11-30 19:09:00,,0825.2,5.01,0.00,23.6,22.4,00.0,32.4,25.4,07.9,0000.0,0015.76,0010.41,0009.98
2022-11-30 19:10:00,,0825.2,5.00,0.00,23.6,22.5,00.0,32.4,25.4,07.9,0000.0,0015.84,0010.36,0009.95
2022-11-30 19:11:00,,0825.2,5.00,0.00,23.6,22.5,00.0,32.4,25.5,07.8,0000.0,0015.86,0010.34,0009.94
2022-11-30 19:12:00,,0825.2,5.00,0.00,23.6,22.5,00.0,32.4,25.5,07.7,0000.0,0015.73,0010.29,0009.91
2022-11-30 19:13:00,,0825.2,4.99,0.00,23.6,22.5,00.0,32.4,25.5,07.7,0000.0,0015.24,0010.25,0009.88
2022-11-30 19:14:00,,0825.2,5.00,0.00,23.7,22.5,00.0,32.4,25.5,07.7,0000.0,0014.98,0010.24,0009.85
2022-11-30 19:15:00,,0825.2,5.00,0.00,23.7,22.6,00.0,32.5,25.5,07.7,0000.0,0014.94,0010.22,0009.84
2022-11-30 19:16:00,,0825.1,5.00,0.00,23.7,22.6,00.0,32.5,25.5,07.7,0000.0,0014.90,0010.19,0009.84
2022-11-30 19:17:00,,0825.0,5.01,0.00,23.7,22.6,00.0,32.5,25.5,07.7,0000.0,0014.96,0010.19,0009.85
2022-11-30 19:18:00,,0825.1,5.01,0.00,23.7,22.6,00.0,32.5,25.5,07.7,0000.0,0014.97,0010.19,0009.85
2022-11-30 19:19:00,,0825.2,5.00,0.00,23.7,22.6,00.0,32.5,25.5,07.8,0000.0,0014.87,0010.21,0009.88
2022-11-30 19:20:00,,0825.2,5.00,0.00,23.7,22.6,00.0,32.5,25.5,07.8,0000.0,0014.78,0010.23,0009.91
2022-11-30 19:21:00,,0825.1,4.99,0.00,23.7,22.6,00.0,32.5,25.5,07.9,0000.0,0014.63,0010.25,0009.94
2022-11-30 19:22:00,,0825.0,4.99,0.00,23.7,22.6,00.0,32.5,25.5,07.9,0000.0,0014.53,0010.26,0009.94
2022-11-30 19:23:00,,0825.1,4.99,0.00,23.8,22.7,00.0,32.5,25.6,07.8,0000.0,0014.59,0010.30,0010.00
2022-11-30 19:24:00,,0825.2,5.01,0.00,23.8,22.7,00.0,32.6,25.6,07.9,0000.0,0014.68,0010.37,0010.06
2022-11-30 19:25:00,,0825.2,5.00,0.00,23.8,22.7,00.0,32.6,25.6,07.8,0000.0,0014.59,0010.45,0010.16
2022-11-30 19:26:00,,0825.0,5.00,0.00,23.8,22.7,00.0,32.6,25.6,07.8,0000.0,0014.31,0010.48,0010.19
2022-11-30 19:27:00,,0824.9,5.00,0.00,23.8,22.7,00.0,32.6,25.6,07.8,0000.0,0014.23,0010.43,0010.11
2022-11-30 19:28:00,,0824.9,5.00,0.00,23.8,22.7,00.0,32.6,25.6,07.7,0000.0,0014.02,0010.31,0009.99
2022-11-30 19:29:00,,0824.9,4.99,0.00,23.8,22.7,00.0,32.6,25.6,07.8,0000.0,0013.88,0010.19,0009.86
2022-11-30 19:30:00,,0824.9,5.00,0.00,23.8,22.7,00.0,32.6,25.7,07.8,0000.0,0014.61,0010.09,0009.74
2022-11-30 19:31:00,,0824.9,5.00,0.00,23.9,22.7,00.0,32.6,25.7,07.9,0000.0,0014.65,0009.99,0009.64
2022-11-30 19:32:00,,0824.9,5.00,0.00,23.9,22.8,00.0,32.7,25.7,07.8,0000.0,0014.63,0009.90,0009.54
2022-11-30 19:33:00,,0824.9,5.00,0.00,23.9,22.8,00.0,32.7,25.7,07.8,0000.0,0014.81,0009.80,0009.45
2022-11-30 19:34:00,,0824.8,5.00,0.00,23.9,22.8,00.0,32.7,25.7,07.8,0000.0,0015.17,0009.68,0009.35
2022-11-30 19:35:00,,0824.9,5.01,0.00,23.9,22.8,00.0,32.7,25.7,07.6,0000.0,0015.17,0009.55,0009.21
2022-11-30 19:36:00,,0824.9,4.99,0.00,23.9,22.8,00.0,32.7,25.7,08.0,0000.0,0014.99,0009.41,0009.06
2022-11-30 19:37:00,,0825.1,5.00,0.00,23.9,22.8,00.0,32.7,25.7,08.0,0000.0,0014.90,0009.33,0008.96
2022-11-30 19:38:00,,0825.1,5.01,0.00,23.9,22.8,00.0,32.7,25.7,08.0,0000.0,0015.32,0009.36,0008.99
2022-11-30 19:39:00,,0824.9,4.99,0.00,23.9,22.8,00.0,32.7,25.7,07.9,0000.0,0015.69,0009.37,0009.01
2022-11-30 19:40:00,,0824.6,5.00,0.00,23.9,22.8,00.0,32.7,25.7,08.0,0000.0,0016.52,0009.39,0009.04
2022-11-30 19:41:00,,0824.4,5.01,0.00,24.0,22.8,00.0,32.8,25.8,07.8,0000.0,0015.94,0009.41,0009.05
2022-11-30 19:42:00,,0824.5,4.99,0.00,24.0,22.8,00.0,32.8,25.8,07.8,0000.0,0015.83,0009.41,0009.03
2022-11-30 19:43:00,,0824.7,5.00,0.00,24.0,22.8,00.0,32.8,25.7,07.9,0000.0,0015.62,0009.41,0009.05
2022-11-30 19:44:00,,0824.9,5.00,0.00,24.0,22.7,00.0,32.8,25.7,07.9,0000.0,0015.45,0009.47,0009.09
2022-11-30 19:45:00,,0825.0,4.99,0.00,24.0,22.7,00.0,32.8,25.7,08.0,0000.0,0014.89,0009.48,0009.09
2022-11-30 19:46:00,,0824.8,5.00,0.00,24.0,22.8,00.0,32.8,25.7,07.9,0000.0,0014.69,0009.50,0009.11
2022-11-30 19:47:00,,0824.6,5.01,0.00,24.0,22.8,00.0,32.8,25.8,07.9,0000.0,0014.65,0009.50,0009.12
2022-11-30 19:48:00,,0824.4,5.00,0.00,24.0,22.8,00.0,32.8,25.9,07.8,0000.0,0014.63,0009.51,0009.15
2022-11-30 19:49:00,,0824.4,4.99,0.00,24.0,22.8,00.0,32.8,25.8,07.9,0000.0,0014.25,0009.48,0009.16
2022-11-30 19:50:00,,0824.6,5.01,0.00,24.0,22.8,00.0,32.8,25.7,08.1,0000.0,0013.82,0009.52,0009.21
2022-11-30 19:51:00,,0824.6,4.99,0.00,24.0,22.8,00.0,32.8,25.7,08.1,0000.0,0013.25,0009.58,0009.27
2022-11-30 19:52:00,,0824.6,5.01,0.00,24.0,22.8,00.0,32.8,25.8,08.0,0000.0,0013.20,0009.63,0009.31
2022-11-30 19:53:00,,0824.6,4.99,0.00,24.0,22.8,00.0,32.8,25.9,08.0,0000.0,0013.18,0009.68,0009.38
2022-11-30 19:54:00,,0824.6,5.00,0.00,24.0,22.8,00.0,32.8,25.9,07.9,0000.0,0013.26,0009.68,0009.39
2022-11-30 19:55:00,,0824.6,5.00,0.00,24.0,22.8,00.0,32.9,25.9,08.0,0000.0,0013.59,0009.65,0009.39
2022-11-30 19:56:00,,0824.5,5.00,0.00,24.0,22.9,00.0,32.9,25.9,07.9,0000.0,0014.16,0009.69,0009.42
2022-11-30 19:57:00,,0824.4,5.00,0.00,24.1,22.9,00.0,32.9,25.9,07.9,0000.0,0014.56,0009.75,0009.46
2022-11-30 19:58:00,,0824.5,5.01,0.00,24.1,22.9,00.0,32.9,25.9,07.9,0000.0,0014.94,0009.80,0009.51
2022-11-30 19:59:00,,0824.4,4.98,0.00,24.1,22.9,00.0,32.9,26.0,07.9,0000.0,0014.98,0009.83,0009.54
